Location: Las Navas
(40.6024°N, 4.3345°W)
Time: 09:29:56
(UTC+00:00)

Cosmos 2084 Rocket - Pass Details

Date: 03 April 2020
Orbit: 561 x 619 km, 62.8° (Epoch: 29 May)

Event Time Altitude Azimuth Distance (km) Brightness Sun altitude
Rises 19:29:53 0° 328° (NNW) 2,882 7.8 -9.2°
Reaches altitude 10° 19:32:12 10° 332° (NNW) 1,980 6.8 -9.7°
Maximum altitude 19:36:37 57° 52° (NE) 731 3.7 -10.5°
Enters shadow 19:40:27 14° 129° (SE) 1,750 5.3 -11.2°
